www.pogodaiklimat.ru

Погода и климат >> Архив погоды >> Украина >> Помошная


ПОГОДА в Помошной

  • Прогноз погоды в Помошной
  • Монитор погоды в Помошной

АРХИВ ПОГОДЫ в Помошной

Время (UTC), дата Ветер
(напр.,м/с)
 
Видим.   Явления Облачность Т
(С)
Тd
(С)
f
(%)
Тe
(С)
Тes
(С)
Комфортность P
(гПа)
Po
(гПа)
Тmin
(С)
Tmax
(С)
R
(мм)
R24
(мм)
S
(см)
12 11.07 З 3 10 км 9/8 600 м
[Cb cap Ac lent]
+19.4 +8.5 49 +20 +22 1006.7 982.4
15 11.07 СЗ 2 10 км {ливн. осадки} 8/3 600 м
[Cb calv Ac lent]
+18.7 +9.9 57 +20 +21 1006.9 982.5
18 11.07 С 1 10 км {ливн. осадки} 6/1 600 м
[Sc diur, vesp Ac lent]
+17.3 +9.6 61 +18 +18 1007.8 983.2 +21.0 0.0
21 11.07 штиль 0 10 км 4/0
[Ac und]
+13.3 +10.0 80 +13 +13 1008.7 983.8
00 12.07 З 2 10 км ясно +11.9 +9.8 87 +11 +11 1008.7 983.6
03 12.07 С 1 10 км 6/0
[Cc]
+12.1 +9.9 86 +12 +12 1008.9 983.8
06 12.07 С 1 10 км 8/0
[Ci fib]
+16.1 +11.9 76 +17 +25 1009.3 984.6 +10.0
09 12.07 СЗ 2 10 км 9/8 600 м
[Cb calv Ci fib]
+19.1 +9.6 54 +20 +24 1009.0 984.5
12 12.07 СЗ 2 10 км 8/8 600 м
[Cb calv]
+22.7 +9.3 42 +24 +27 комфорт 1007.6 983.5
15 12.07 СЗ 5 10 км 8/8 600 м
[Cb cap]
+20.7 +10.3 51 +22 +23 комфорт 1008.1 983.8
18 12.07 З 1 10 км 6/3 600 м
[Cb calv Ac lent Ci fib]
+18.3 +10.3 60 +20 +20 1009.3 984.8 +24.0
21 12.07 СЗ 1 10 км ясно +15.9 +12.3 79 +17 +17 1009.9 985.2
00 13.07 штиль 0 10 км ясно +13.3 +10.6 84 +13 +13 1010.0 985.0
03 13.07 штиль 0 10 км ясно +11.7 +10.4 92 +11 +12 1009.9 984.8
06 13.07 СЗ 2 10 км ясно +17.8 +11.8 68 +18 +26 1010.0 985.4 +10.9
09 13.07 СВ 2 10 км 8/6 600 м
[Cb cap Ci ing]
+22.7 +9.7 44 +24 +31 комфорт 1009.7 985.5
12 13.07 Ю 3 10 км 8/8 600 м
[Cb cap Ci ing]
+23.3 +10.0 43 +25 +28 комфорт 1008.8 984.7
15 13.07 СВ 1 10 км {гроза, ливн. осадки} 4/1 600 м
[Cu med, cong Ac trans]
+21.3 +12.3 56 +23 +27 комфорт 1009.0 984.7
18 13.07 штиль 0 10 км {гроза, ливн. осадки} 6/3 600 м
[Sc diur, vesp Ci fib]
+19.9 +17.1 84 +22 +22 комфорт 1009.7 985.3 +24.0 15
21 13.07 штиль 0 10 км 3/1 600 м
[Sc Ci fib]
+14.6 +12.8 89 +14 +14 1010.4 985.5
00 14.07 штиль 0 10 км 1/0
[Ci fib]
+13.5 +12.2 92 +13 +13 1009.9 984.9
03 14.07 штиль 0 10 км 10/4 600 м
[Sc Ci fib]
+12.0 +11.2 95 +11 +12 1009.8 984.7
06 14.07 СВ 1 10 км 6/3 600 м
[Sc Ac trans Ci fib]
+19.7 +13.4 67 +23 +28 комфорт 1009.2 984.8 +11.4
09 14.07 В 2 10 км 6/4 600 м
[Cb calv Ci fib]
+23.3 +10.7 45 +25 +35 комфорт 1008.6 984.5
12 14.07 СВ 4 10 км 8/6 600 м
[Cb calv Ac trans Ci fib]
+23.9 +10.9 44 +25 +28 комфорт 1007.4 983.4
15 14.07 Ю 3 10 км гроза без осадков {ливн. осадки} 10/10 600 м
[Cb cap]
+20.6 +12.4 59 +23 +23 комфорт 1008.7 984.4
18 14.07 В 1 10 км {гроза, ливн. осадки} 9/9 600 м
[Cb cap]
+15.9 +14.3 90 +17 +17 1009.4 984.7 +25.1 2
21 14.07 СЗ 1 10 км 1/0
[Ci fib]
+14.0 +13.1 94 +14 +14 1009.3 984.4
00 15.07 С 1 10 км ясно +12.6 +11.9 95 +13 +13 1008.5 983.5
03 15.07 С 1 4000 м дымка 3/3 600 м
[Sc]
+12.3 +11.9 97 +12 +12 1008.5 983.5
06 15.07 В 1 10 км 9/5 600 м
[Sc Ac trans Ci fib]
+16.3 +14.8 91 +17 +20 1008.6 983.9 +12.0
12 15.07 В 1 10 км 10/3 600 м
[Cb calv As op]
+23.3 +12.9 52 +26 +29 жарко 1007.4 983.3
18 15.07 ЮЗ 4 4000 м гроза, ливневой дождь 10/10 600 м
[Cb cap]
+16.5 +13.3 81 +16 +16 1009.9 985.2 +24.8 0.4
00 16.07 штиль 0 10 км {гроза, ливн. осадки} 8/3 600 м
[Sc Ci fib]
+13.4 +12.6 95 +13 +13 1009.1 984.1
06 16.07 С 2 4000 м дымка {туман} 8/8 600 м
[Cu med, cong]
+16.1 +14.9 93 +16 +18 1009.4 984.7 +13.2 3
12 16.07 С 2 10 км 6/6 600 м
[Cb calv]
+22.5 +12.6 54 +25 +31 комфорт 1008.0 983.9
18 16.07 СЗ 1 10 км 4/1 600 м
[Cb calv Ac lent]
+21.2 +12.4 57 +23 +23 комфорт 1008.4 984.1 +24.1
00 17.07 штиль 0 10 км ясно +15.1 +12.0 82 +15 +15 1009.1 984.3
06 17.07 СЗ 1 10 км 1/0
[Ci fib]
+19.2 +12.4 65 +21 +30 комфорт 1008.7 984.3 +12.0
12 17.07 СЗ 3 10 км в посл. час ливневой дождь 8/8 600 м
[Cb cap]
+22.4 +11.3 49 +25 +27 комфорт 1007.8 983.6
18 17.07 СЗ 1 10 км 8/5 600 м
[Cb cap Ac trans]
+21.2 +12.8 59 +23 +23 комфорт 1007.8 983.5 +24.5 0.0
00 18.07 СЗ 1 10 км 1/1 600 м
[Sc]
+13.1 +10.6 85 +13 +13 1009.9 984.9
06 18.07 З 2 10 км ясно +16.3 +10.5 69 +16 +24 1010.9 986.2 +10.5

 

Местоположение метеостанции Помошная (Кировоградская область, Украина): широта 48.23 долгота 31.40 высота над уровнем моря 211 м.

В архиве по умолчанию представлена погода в Помошной за последнюю неделю. Архивные данные за месяц целиком и за предыдущие месяцы, начиная с января 2011 года, Вы можете получить, выбрав интересующий диапазон дат из раскрывающегося списка и нажав кнопку "Ввод!".


*Определитесь, кто Вы:
робот инопланетянин человек

Внимание! Время в таблицах - всемирное. Для получения местного времени необходимо прибавить поправку, которая равна 2 ч.

Смотрите также архив погоды в соседних городах и на ближайших метеорологических станциях:

Погода в Первомайске (Николаевская область, Украина) (45 км)
Погода в Бобринце (Кировоградская область, Украина) (58 км)
Погода в Новомиргороде (Кировоградская область, Украина) (63 км)
Погода в Кропивницком (Кировоградская область, Украина) (67 км)
Погода в Вознесенске (Николаевская область, Украина) (74 км)
Погода в Любашевке (Одесская область, Украина) (94 км)
Погода в Звенигородке (Черкасская область, Украина) (101 км)
Погода в Долинской (Кировоградская область, Украина) (102 км)
Погода в Ротмистровке (Черкасская область, Украина) (102 км)
Погода в Умани (Черкасская область, Украина) (105 км)

Пояснения к столбцам:

Ветер - указаны скорость ветра в м/с - средняя за 10 мин, порывы в срок и между сроками (в фигурных скобках) и направление, откуда дует ветер: С - северный, СВ - северо-восточный, В - восточный, ЮВ - юго-восточный, Ю - южный, ЮЗ - юго-западный, З - западный, СЗ - северо-западный.
Видимость - горизонтальная дальность видимости в метрах или километрах. При видимости от 1 до 10 км при отсутствии осадков обычно наблюдается дымка, при ухудшении видимости до 1 км и менее - туман. В сухую погоду видимость может ухудшаться дымом, пылью или мглою.
Явления - указаны атмосферные явления, наблюдавшиеся в срок или в последний час перед сроком; фигурными скобками обозначены явления, наблюдавшиеся между сроками (за 1-3 часа до срока); квадратными скобками обозначены град или гололедные отложения с указанием их диаметра в мм.
Облачность - указаны через наклонную черту общая и нижняя облачность в баллах и высота нижней границы облаков в метрах; квадратными скобками обозначены формы облаков: Ci - перистые, Cs - перисто-слоистые, Cc - перисто-кучевые, Ac - высококучевые, As - высокослоистые, Sc - слоисто-кучевые, Ns - слоисто-дождевые, Cu - кучевые, Cb - кучево-дождевые. Подробнее классификацию облаков см. в Атласе облаков (PDF).
T - Температура воздуха - температура, измеренная на высоте 2 м над землей.
Td - Температура точки росы - температура, при понижении до которой содержащийся в воздухе водяной пар достигнет насыщения.
f - Относительная влажность воздуха - влажноcть воздуха, измеренная на высоте 2 м над землей.
Te - Эффективная температура - температура, которую ощущает одетый по сезону человек в тени. Характеристика душности погоды. При расчете учитывается влияние влажности воздуха и скорости ветра на теплоощущения человека.
Tes - Эффективная температура на солнце - температура, которую ощущает человек, с поправкой на солнечный нагрев. Характеристика знойности погоды. Зависит от высоты солнца над горизонтом, облачности и скорости ветра. Ночью, в пасмурную погоду, а также при ветре 12 м/с и более поправка равна нулю.
P - Атмосферное давление - приведенное к уровню моря атмосферное давление.
Po - Атмосферное давление - измеренное на уровне метеостанции атмосферное давление.
Tmin - Минимальная температура - минимум температуры воздуха на высоте 2 м над землей.
Tmax - Максимальная температура - максимум температуры воздуха на высоте 2 м над землей.
R - Количество осадков - Количество выпавших осадков за период времени, мм. При наведении курсора мыши на число - период времени, за который выпало указанное количество осадков.
R24 - Количество осадков - Количество выпавших осадков за 24 часа, мм.
S - Снежный покров - Высота снежного покрова, см. При наведении курсора мыши на число - состояние снежного покрова и степень покрытия местности в баллах.